Location: *
(45.8589°N, 4.7139°E)
Time: 03:25:11
(UTC+00:00)

ADEOS Rocket - Pass Details

Date: 09 April 2020
Orbit: 858 x 1307 km, 98.7° (Epoch: 02 June)

Event Time Altitude Azimuth Distance (km) Brightness Sun altitude
Rises 19:00:41 0° 9° (N) 3,864 6.3 -7.5°
Reaches altitude 10° 19:03:24 10° 4° (N) 2,839 5.7 -8.0°
Maximum altitude 19:09:23 46° 294° (WNW) 1,265 4.2 -9.0°
Drops below altitude 10° 19:14:49 10° 222° (SW) 2,581 5.5 -9.8°
Sets 19:17:12 0° 217° (SW) 3,481 6.1 -10.2°
